Weather in Timovskoye

Russia / Sakhalin District     50°50′51″N   142°39′50″E
temp.,
°C
wind,
m/s
gust,
m/s
humid.,
%
clouds,
%
prec.,
mm/h
press.,
hPa
HPBL,
m
12 may, wed
wed1223:00+2se2276100 0.0 102038
02:000se2676100 0.0 1020168
05:000sse3679100 0.0 1021177
08:00+2sse356892 0.0 1021288
11:00+8s34442 0.0 1020927
14:00+12s33290 0.0 10171691
17:00+13sw44270 0.0 10161965
20:00+9s25490 0.0 1016290
13 may, thu
thu1323:00+3sse38775 0.0 1019270
02:000se2588100 0.0 1018137
05:00−1se269069 0.0 1017153
08:00+3sse3675100 0.0 1016277
11:00+5s4669100 0.0 1014541
14:00+4sse3688100 0.1 1014631
17:00+5s3591100 0.1 1012520
20:00+3s3696100 0.0 1012472
14 may, fri
fri1423:00+2s2698100 0.0 1012300
02:00+2sse2398100 0.0 1012172
05:00+2s1398100 0.0 1011168
08:00+3se1295100 0.0 1011156
11:00+6ssw1179100 0.0 1011369
14:00+10w1067100 0.0 1011673
17:00+11nw116490 0.0 1011852
20:00+10nnw117365 0.0 101238
15 may, sat
sat1523:00+6e119028 0.0 101410
02:00+5se21965 0.0 101517
05:00+3sse249974 0.0 101592
08:00+5sse3692100 0.0 1015285
11:00+9s4874100 0.0 1013595
14:00+12s61059100 0.0 1010855
17:00+9s51174100 0.0 1008641
20:00+5sse41288100 0.1 1008552
16 may, sun
sun1623:00+4sse51596100 4.8 1005751
02:00+4s51496100 1.7 1003663
05:00+4sse41197100 2.4 1001453
08:00+5sse4997100 0.0 999389
11:00+7s479299 0.0 998446
14:00+10sw4870100 0.8 9961277
17:00+11wsw486172 1.3 9961509
20:00+8w2676100 0.3 997834